Hourly Weather Bolshoy Ruyal

Today, 20 September, Monday

Time Temperature Precipitation Wind Pressure Humidity
00:00 +1°C° 0 mm 1 mps 758 mmHg 79%
01:00 +1°C° 0 mm 1 mps 759 mmHg 78%
02:00 +1°C° 0 mm 1 mps 759 mmHg 78%
03:00 +1°C° 0 mm 1 mps 759 mmHg 77%
04:00 +1°C° 0 mm 1 mps 759 mmHg 76%
05:00 -1°C° 0 mm 2 mps 759 mmHg 76%
06:00 -1°C° 0 mm 2 mps 759 mmHg 75%
07:00 +2°C° 0 mm 2 mps 759 mmHg 67%
08:00 +3°C° 0 mm 2 mps 760 mmHg 59%
09:00 +4°C° 0 mm 3 mps 760 mmHg 51%
10:00 +5°C° 0 mm 3 mps 760 mmHg 48%
11:00 +7°C° 0 mm 3 mps 760 mmHg 46%
12:00 +8°C° 0 mm 3 mps 760 mmHg 43%
13:00 +8°C° 0 mm 3 mps 760 mmHg 42%
14:00 +9°C° 0 mm 3 mps 759 mmHg 42%
15:00 +9°C° 0 mm 3 mps 759 mmHg 41%
16:00 +8°C° 0 mm 3 mps 759 mmHg 48%
17:00 +5°C° 0 mm 3 mps 759 mmHg 54%
18:00 +4°C° 0 mm 3 mps 759 mmHg 61%
19:00 +3°C° 0 mm 3 mps 759 mmHg 64%
20:00 +3°C° 0 mm 3 mps 759 mmHg 68%
21:00 +2°C° 0 mm 3 mps 760 mmHg 71%
22:00 +1°C° 0 mm 3 mps 760 mmHg 75%
23:00 +1°C° 0 mm 3 mps 760 mmHg 78%

Tomorrow, 21 September, Tuesday

Time Temperature Precipitation Wind Pressure Humidity
00:00 0°C° 0 mm 3 mps 760 mmHg 81%
01:00 0°C° 0 mm 3 mps 760 mmHg 85%
02:00 -1°C° 0 mm 3 mps 760 mmHg 88%
03:00 -1°C° 0 mm 3 mps 759 mmHg 92%
04:00 -1°C° 0 mm 3 mps 759 mmHg 92%
05:00 -2°C° 0 mm 3 mps 759 mmHg 93%
06:00 -2°C° 0 mm 3 mps 759 mmHg 94%
07:00 0°C° 0 mm 3 mps 759 mmHg 83%
08:00 +3°C° 0 mm 4 mps 759 mmHg 73%
09:00 +5°C° 0 mm 4 mps 759 mmHg 63%
10:00 +6°C° 0 mm 4 mps 758 mmHg 58%
11:00 +7°C° 0 mm 4 mps 758 mmHg 53%
12:00 +10°C° 0 mm 4 mps 758 mmHg 48%
13:00 +10°C° 0 mm 4 mps 757 mmHg 47%
14:00 +10°C° 0 mm 4 mps 757 mmHg 47%
15:00 +11°C° 0 mm 4 mps 757 mmHg 46%
16:00 +8°C° 0 mm 4 mps 756 mmHg 52%
17:00 +8°C° 0 mm 3 mps 756 mmHg 59%
18:00 +5°C° 0 mm 3 mps 756 mmHg 66%
19:00 +4°C° 0 mm 3 mps 756 mmHg 70%
20:00 +4°C° 0 mm 3 mps 756 mmHg 73%
21:00 +3°C° 0 mm 3 mps 756 mmHg 77%
22:00 +2°C° 0 mm 3 mps 756 mmHg 80%
23:00 +2°C° 0 mm 3 mps 756 mmHg 82%

Day after tomorrow, 22 September, Wednesday

Time Temperature Precipitation Wind Pressure Humidity
00:00 +1°C° 0 mm 3 mps 755 mmHg 85%
01:00 +1°C° 0 mm 3 mps 755 mmHg 86%
02:00 +1°C° 0 mm 3 mps 755 mmHg 87%
03:00 0°C° 0 mm 3 mps 755 mmHg 88%
04:00 -1°C° 0 mm 4 mps 755 mmHg 87%
05:00 -1°C° 0 mm 4 mps 755 mmHg 87%
06:00 -1°C° 0 mm 4 mps 755 mmHg 86%
07:00 +1°C° 0 mm 5 mps 755 mmHg 77%
08:00 +3°C° 0 mm 5 mps 755 mmHg 68%
09:00 +5°C° 0 mm 6 mps 755 mmHg 58%
10:00 +8°C° 0 mm 6 mps 754 mmHg 54%
11:00 +9°C° 0 mm 7 mps 754 mmHg 49%
12:00 +11°C° 0 mm 7 mps 754 mmHg 45%
13:00 +11°C° 0 mm 7 mps 754 mmHg 45%
14:00 +12°C° 0 mm 7 mps 754 mmHg 45%
15:00 +13°C° 0 mm 6 mps 754 mmHg 45%
16:00 +11°C° 0 mm 6 mps 754 mmHg 49%
17:00 +10°C° 0 mm 6 mps 754 mmHg 53%
18:00 +8°C° 0 mm 5 mps 754 mmHg 57%
19:00 +8°C° 0 mm 5 mps 754 mmHg 57%
20:00 +8°C° 0 mm 5 mps 754 mmHg 57%
21:00 +8°C° 0 mm 6 mps 754 mmHg 57%
22:00 +8°C° 0 mm 5 mps 754 mmHg 57%
23:00 +8°C° 0 mm 5 mps 754 mmHg 58%

23 September, Thursday

Time Temperature Precipitation Wind Pressure Humidity
00:00 +8°C° 0 mm 5 mps 754 mmHg 58%
01:00 +8°C° 0 mm 5 mps 754 mmHg 61%
02:00 +8°C° 0 mm 5 mps 754 mmHg 64%
03:00 +7°C° 0 mm 5 mps 754 mmHg 67%
04:00 +7°C° 0.1 mm 5 mps 754 mmHg 70%
05:00 +7°C° 0.1 mm 5 mps 754 mmHg 73%
06:00 +7°C° 0.1 mm 5 mps 754 mmHg 76%
07:00 +7°C° 0 mm 5 mps 754 mmHg 72%
08:00 +8°C° 0 mm 5 mps 754 mmHg 68%
09:00 +9°C° 0 mm 5 mps 754 mmHg 63%
10:00 +9°C° 0.2 mm 5 mps 754 mmHg 65%
11:00 +11°C° 0.2 mm 4 mps 754 mmHg 68%
12:00 +11°C° 0.2 mm 4 mps 754 mmHg 70%
13:00 +11°C° 0.7 mm 4 mps 754 mmHg 77%
14:00 +9°C° 0.7 mm 5 mps 754 mmHg 84%
15:00 +8°C° 0.7 mm 5 mps 754 mmHg 92%
16:00 +9°C° 0.9 mm 5 mps 754 mmHg 92%
17:00 +10°C° 0.9 mm 4 mps 753 mmHg 93%
18:00 +10°C° 0.9 mm 4 mps 753 mmHg 94%
19:00 +9°C° 0.7 mm 5 mps 753 mmHg 93%
20:00 +9°C° 0.7 mm 5 mps 753 mmHg 92%
21:00 +8°C° 0.7 mm 6 mps 753 mmHg 91%
22:00 +8°C° 0.1 mm 6 mps 753 mmHg 91%
23:00 +8°C° 0.1 mm 5 mps 753 mmHg 92%

24 September, Friday

Time Temperature Precipitation Wind Pressure Humidity
00:00 +8°C° 0.1 mm 5 mps 753 mmHg 92%
01:00 +8°C° 0 mm 5 mps 752 mmHg 92%
02:00 +8°C° 0 mm 5 mps 752 mmHg 92%
03:00 +8°C° 0 mm 5 mps 752 mmHg 92%
04:00 +8°C° 0 mm 5 mps 752 mmHg 92%
05:00 +8°C° 0 mm 5 mps 752 mmHg 92%
06:00 +8°C° 0 mm 6 mps 751 mmHg 93%
07:00 +9°C° 0 mm 6 mps 751 mmHg 88%
08:00 +10°C° 0 mm 7 mps 751 mmHg 84%
09:00 +11°C° 0 mm 7 mps 751 mmHg 79%
10:00 +11°C° 0 mm 7 mps 750 mmHg 79%
11:00 +11°C° 0 mm 6 mps 750 mmHg 79%
12:00 +11°C° 0 mm 6 mps 750 mmHg 79%
13:00 +10°C° 0.4 mm 6 mps 750 mmHg 82%
14:00 +10°C° 0.4 mm 6 mps 750 mmHg 85%
15:00 +9°C° 0.4 mm 6 mps 750 mmHg 88%
16:00 +8°C° 1.2 mm 6 mps 749 mmHg 89%
17:00 +8°C° 1.2 mm 7 mps 749 mmHg 90%
18:00 +6°C° 1.2 mm 7 mps 749 mmHg 91%
19:00 +6°C° 0.3 mm 7 mps 748 mmHg 88%
20:00 +7°C° 0.3 mm 6 mps 748 mmHg 85%
21:00 +7°C° 0.3 mm 6 mps 747 mmHg 82%
22:00 +7°C° 0.1 mm 6 mps 747 mmHg 82%
23:00 +7°C° 0.1 mm 5 mps 746 mmHg 81%

25 September, Saturday

Time Temperature Precipitation Wind Pressure Humidity
00:00 +7°C° 0.1 mm 5 mps 745 mmHg 80%
01:00 +8°C° 0 mm 5 mps 745 mmHg 78%
02:00 +8°C° 0 mm 6 mps 744 mmHg 76%
03:00 +8°C° 0 mm 6 mps 743 mmHg 73%
04:00 +8°C° 0.1 mm 5 mps 742 mmHg 72%
05:00 +8°C° 0.1 mm 5 mps 742 mmHg 70%
06:00 +8°C° 0.1 mm 5 mps 742 mmHg 69%
07:00 +8°C° 0.2 mm 5 mps 741 mmHg 73%
08:00 +8°C° 0.2 mm 5 mps 741 mmHg 77%
09:00 +8°C° 0.2 mm 6 mps 741 mmHg 81%
10:00 +8°C° 0.2 mm 6 mps 740 mmHg 82%
11:00 +8°C° 0.2 mm 5 mps 740 mmHg 83%
12:00 +8°C° 0.2 mm 5 mps 740 mmHg 84%
13:00 +8°C° 0.1 mm 5 mps 740 mmHg 83%
14:00 +10°C° 0.1 mm 4 mps 740 mmHg 82%
15:00 +11°C° 0.1 mm 4 mps 740 mmHg 81%
16:00 +10°C° 0.3 mm 4 mps 740 mmHg 83%
17:00 +8°C° 0.3 mm 4 mps 740 mmHg 86%
18:00 +7°C° 0.3 mm 5 mps 740 mmHg 89%
19:00 +7°C° 0.1 mm 5 mps 740 mmHg 89%
20:00 +7°C° 0.1 mm 5 mps 740 mmHg 89%
21:00 +8°C° 0.1 mm 6 mps 740 mmHg 90%
22:00 +8°C° 0.1 mm 6 mps 740 mmHg 89%
23:00 +8°C° 0.1 mm 6 mps 740 mmHg 88%
Show more

We Need Your Consent

Meteoprog and our Service Providers may store and access personal data such as cookies, device identifiers or other similar technologies on your device and process such data to personalise content and ads, as well as provide social media features and to analyse the traffic.

  • Store and/or access information on your device

    Cookies, device identifiers or other information can be stored or accessed on your device for the purposes indicated above.

  • Personalised ads and content, ad and content measurement, audience insights, and products development

    Ads and content can be personalised based on a profile. More data can be added to better personalise ads and content. Ad and content performance can be measured. Insights about the audience who saw the ads and content can be derived. Such data can be used to develop or improve user’s experience, systems and software.

By clicking ‘I Agree’ you will allow the use of indicated cookies, device identifiers, web beacons or other similar technologies. Your settings can be changed in the browser on your device.

For certain purposes, legitimate interests may be relied on, rather than consent. You can read more about this in our Privacy and Cookie Policy.